| time (UTC) | temp F | wind direction | speed knots | gust knots | rain 1hr in | rain 24hr in | rain mn in | humidity % | barometer mb |
| 20260831134908 | 92 | 338 | 1.7 | 2.6 | 0.00 | 0.00 | 0.00 | 53 | 1012.0 |
| 20260831134409 | 93 | 53 | 4.3 | 6.1 | 0.00 | 0.00 | 0.00 | 50 | 1012.1 |
| 20260831133909 | 94 | 95 | 1.7 | 2.6 | 0.00 | 0.00 | 0.00 | 55 | 1011.7 |
| 20260831132407 | 93 | 204 | 0.9 | 2.6 | 0.00 | 0.00 | 0.00 | 56 | 1011.2 |
| 20260831131410 | 93 | 127 | 1.7 | 2.6 | 0.00 | 0.00 | 0.00 | 56 | 1011.4 |
| 20260831130408 | 94 | 150 | 0.9 | 2.6 | 0.00 | 0.00 | 0.00 | 56 | 1011.6 |
| 20260831125908 | 94 | 150 | 0.9 | 2.6 | 0.00 | 0.00 | 0.00 | 57 | 1011.7 |
| 20260831125409 | 93 | 219 | 0.9 | 2.6 | 0.00 | 0.00 | 0.00 | 57 | 1011.8 |
| 20260831124910 | 93 | 218 | 0.9 | 2.6 | 0.00 | 0.00 | 0.00 | 57 | 1011.8 |
| 20260831124409 | 92 | 248 | 1.7 | 2.6 | 0.00 | 0.00 | 0.00 | 58 | 1011.8 |
| 20260831123909 | 92 | 221 | 2.6 | 2.6 | 0.00 | 0.00 | 0.00 | 59 | 1011.8 |
| 20260831123408 | 92 | 216 | 2.6 | 4.3 | 0.00 | 0.00 | 0.00 | 58 | 1011.8 |
| 20260831122909 | 92 | 237 | 1.7 | 2.6 | 0.00 | 0.00 | 0.00 | 57 | 1011.8 |
| 20260831122409 | 92 | 223 | 1.7 | 5.2 | 0.00 | 0.00 | 0.00 | 58 | 1011.9 |
| 20260831121909 | 91 | 174 | 1.7 | 2.6 | 0.00 | 0.00 | 0.00 | 59 | 1011.9 |
| 20260831121409 | 91 | 220 | 1.7 | 2.6 | 0.00 | 0.00 | 0.00 | 60 | 1011.9 |
| 20260831120908 | 91 | 222 | 1.7 | 2.6 | 0.00 | 0.00 | 0.00 | 61 | 1012.1 |
| 20260831120409 | 90 | 221 | 2.6 | 2.6 | 0.00 | 0.00 | 0.00 | 62 | 1012.1 |
| 20260831115909 | 90 | 229 | 2.6 | 2.6 | 0.00 | 0.00 | 0.00 | 60 | 1012.2 |
| 20260831115410 | 90 | 232 | 1.7 | 2.6 | 0.00 | 0.00 | 0.00 | 63 | 1012.2 |
| 20260831114909 | 89 | 242 | 2.6 | 2.6 | 0.00 | 0.00 | 0.00 | 64 | 1012.2 |
| 20260831114409 | 89 | 231 | 2.6 | 2.6 | 0.00 | 0.00 | 0.00 | 61 | 1012.3 |
| 20260831113909 | 90 | 239 | 2.6 | 2.6 | 0.00 | 0.00 | 0.00 | 61 | 1012.3 |
| 20260831113408 | 90 | 234 | 1.7 | 2.6 | 0.00 | 0.00 | 0.00 | 60 | 1012.3 |
| 20260831112909 | 90 | 253 | 1.7 | 2.6 | 0.00 | 0.00 | 0.00 | 61 | 1012.3 |
| 20260831112408 | 90 | 238 | 1.7 | 2.6 | 0.00 | 0.00 | 0.00 | 59 | 1012.3 |
| 20260831110909 | 90 | 264 | 1.7 | 2.6 | 0.00 | 0.00 | 0.00 | 62 | 1012.4 |
| 20260831110409 | 90 | 242 | 1.7 | 2.6 | 0.00 | 0.00 | 0.00 | 61 | 1012.5 |
| 20260831105909 | 89 | 268 | 1.7 | 2.6 | 0.00 | 0.00 | 0.00 | 62 | 1012.5 |
| 20260831105409 | 89 | 234 | 1.7 | 2.6 | 0.00 | 0.00 | 0.00 | 62 | 1012.6 |
| 20260831104910 | 89 | 243 | 2.6 | 2.6 | 0.00 | 0.00 | 0.00 | 62 | 1012.7 |
| 20260831104408 | 89 | 242 | 2.6 | 2.6 | 0.00 | 0.00 | 0.00 | 62 | 1012.7 |
| 20260831103409 | 88 | 248 | 1.7 | 2.6 | 0.00 | 0.00 | 0.00 | 64 | 1012.8 |
| 20260831102909 | 88 | 232 | 2.6 | 2.6 | 0.00 | 0.00 | 0.00 | 64 | 1012.8 |
| 20260831102409 | 88 | 234 | 1.7 | 2.6 | 0.00 | 0.00 | 0.00 | 65 | 1012.8 |
| 20260831101409 | 88 | 261 | 1.7 | 2.6 | 0.00 | 0.00 | 0.00 | 63 | 1012.8 |
| 20260831100408 | 88 | 245 | 1.7 | 2.6 | 0.00 | 0.00 | 0.00 | 66 | 1012.9 |
| 20260831095909 | 88 | 238 | 1.7 | 2.6 | 0.00 | 0.00 | 0.00 | 67 | 1012.9 |
| 20260831095409 | 87 | 233 | 1.7 | 2.6 | 0.00 | 0.00 | 0.00 | 65 | 1012.9 |
| 20260831094908 | 87 | 245 | 2.6 | 5.2 | 0.00 | 0.00 | 0.00 | 65 | 1012.9 |
| 20260831094409 | 87 | 229 | 1.7 | 5.2 | 0.00 | 0.00 | 0.00 | 67 | 1012.9 |
| 20260831093908 | 87 | 260 | 1.7 | 2.6 | 0.00 | 0.00 | 0.00 | 67 | 1013.0 |
| 20260831093409 | 86 | 243 | 1.7 | 2.6 | 0.00 | 0.00 | 0.00 | 68 | 1012.9 |
| 20260831092909 | 86 | 231 | 1.7 | 2.6 | 0.00 | 0.00 | 0.00 | 66 | 1013.0 |
| 20260831092410 | 86 | 231 | 1.7 | 2.6 | 0.00 | 0.00 | 0.00 | 67 | 1013.1 |
| 20260831091909 | 86 | 250 | 1.7 | 2.6 | 0.00 | 0.00 | 0.00 | 67 | 1013.0 |
| 20260831091408 | 87 | 261 | 1.7 | 2.6 | 0.00 | 0.00 | 0.00 | 67 | 1013.0 |
| 20260831090908 | 86 | 230 | 1.7 | 2.6 | 0.00 | 0.00 | 0.00 | 68 | 1013.1 |
| 20260831090408 | 86 | 203 | 1.7 | 2.6 | 0.00 | 0.00 | 0.00 | 69 | 1013.1 |
| 20260831085908 | 85 | 232 | 1.7 | 2.6 | 0.00 | 0.00 | 0.00 | 70 | 1013.1 |
| 20260831084909 | 86 | 236 | 1.7 | 2.6 | 0.00 | 0.00 | 0.00 | 69 | 1013.2 |
| 20260831084412 | 86 | 236 | 1.7 | 2.6 | 0.00 | 0.00 | 0.00 | 69 | 1013.2 |
| 20260831083909 | 85 | 215 | 1.7 | 2.6 | 0.00 | 0.00 | 0.00 | 69 | 1013.2 |
| 20260831083408 | 85 | 223 | 1.7 | 2.6 | 0.00 | 0.00 | 0.00 | 71 | 1013.1 |
| 20260831082409 | 85 | 226 | 1.7 | 2.6 | 0.00 | 0.00 | 0.00 | 72 | 1013.1 |
| 20260831081910 | 85 | 209 | 0.9 | 2.6 | 0.00 | 0.00 | 0.00 | 74 | 1013.2 |
| 20260831081409 | 84 | 200 | 0.9 | 2.6 | 0.00 | 0.00 | 0.00 | 74 | 1013.2 |
| 20260831080908 | 84 | 226 | 1.7 | 2.6 | 0.00 | 0.00 | 0.00 | 74 | 1013.1 |
| 20260831080408 | 84 | 229 | 0.9 | 2.6 | 0.00 | 0.00 | 0.00 | 75 | 1013.1 |
| 20260831075909 | 84 | 232 | 1.7 | 2.6 | 0.00 | 0.00 | 0.00 | 75 | 1013.0 |
| 20260831074408 | 83 | 234 | 1.7 | 2.6 | 0.00 | 0.00 | 0.00 | 77 | 1012.9 |
| 20260831073910 | 83 | 237 | 1.7 | 2.6 | 0.00 | 0.00 | 0.00 | 77 | 1012.8 |
| 20260831073409 | 83 | 237 | 1.7 | 2.6 | 0.00 | 0.00 | 0.00 | 77 | 1012.8 |
| 20260831072909 | 83 | 238 | 1.7 | 2.6 | 0.00 | 0.00 | 0.00 | 77 | 1012.7 |
| 20260831072408 | 83 | 244 | 1.7 | 2.6 | 0.00 | 0.00 | 0.00 | 77 | 1012.7 |
| 20260831071908 | 83 | 226 | 1.7 | 2.6 | 0.00 | 0.00 | 0.00 | 77 | 1012.7 |
| 20260831071408 | 83 | 234 | 1.7 | 2.6 | 0.00 | 0.00 | 0.00 | 77 | 1012.7 |
| 20260831070408 | 83 | 259 | 1.7 | 2.6 | 0.00 | 0.00 | 0.00 | 77 | 1012.7 |
| 20260831065908 | 83 | 265 | 1.7 | 2.6 | 0.00 | 0.00 | 0.00 | 78 | 1012.8 |
| 20260831065408 | 83 | 253 | 1.7 | 2.6 | 0.00 | 0.00 | 0.00 | 78 | 1012.8 |
| 20260831064908 | 82 | 268 | 1.7 | 2.6 | 0.00 | 0.00 | 0.00 | 78 | 1012.8 |
| 20260831064408 | 82 | 257 | 1.7 | 2.6 | 0.00 | 0.00 | 0.00 | 78 | 1012.8 |
| 20260831063911 | 82 | 247 | 1.7 | 2.6 | 0.00 | 0.00 | 0.00 | 78 | 1012.8 |
| 20260831063408 | 82 | 264 | 1.7 | 2.6 | 0.00 | 0.00 | 0.00 | 78 | 1012.8 |
| 20260831062908 | 82 | 259 | 2.6 | 2.6 | 0.00 | 0.00 | 0.00 | 78 | 1012.9 |
| 20260831061909 | 83 | 262 | 1.7 | 2.6 | 0.00 | 0.00 | 0.00 | 77 | 1012.8 |
| 20260831060908 | 83 | 261 | 0.9 | 1.7 | 0.00 | 0.00 | 0.00 | 76 | 1012.8 |
| 20260831060408 | 83 | 251 | 0.9 | 2.6 | 0.00 | 0.00 | 0.00 | 76 | 1012.8 |
| 20260831055908 | 83 | 264 | 0.9 | 2.6 | 0.00 | 0.00 | 0.00 | 77 | 1012.7 |
| 20260831055408 | 83 | 258 | 0.9 | 2.6 | 0.00 | 0.00 | 0.00 | 76 | 1012.7 |
| 20260831054908 | 83 | 309 | 1.7 | 2.6 | 0.00 | 0.00 | 0.00 | 76 | 1012.7 |
| 20260831054407 | 83 | 295 | 0.9 | 2.6 | 0.00 | 0.00 | 0.00 | 77 | 1012.7 |
| 20260831053909 | 82 | 296 | 1.7 | 2.6 | 0.00 | 0.00 | 0.00 | 77 | 1012.7 |
| 20260831052907 | 82 | 284 | 1.7 | 2.6 | 0.00 | 0.00 | 0.00 | 77 | 1012.7 |
| 20260831052409 | 82 | 281 | 0.9 | 2.6 | 0.00 | 0.00 | 0.00 | 78 | 1012.6 |
| 20260831051909 | 82 | 272 | 0.9 | 1.7 | 0.00 | 0.00 | 0.00 | 78 | 1012.6 |
| 20260831051408 | 82 | 236 | 0.9 | 1.7 | 0.00 | 0.00 | 0.00 | 78 | 1012.6 |
| 20260831050909 | 82 | 308 | 1.7 | 2.6 | 0.00 | 0.00 | 0.00 | 78 | 1012.6 |
| 20260831050408 | 82 | 296 | 0.9 | 1.7 | 0.00 | 0.00 | 0.00 | 78 | 1012.5 |
| 20260831045907 | 82 | 292 | 0.9 | 2.6 | 0.00 | 0.00 | 0.00 | 79 | 1012.5 |
| 20260831044907 | 82 | 285 | 1.7 | 2.6 | 0.00 | 0.00 | 0.00 | 79 | 1012.5 |
| 20260831044408 | 82 | 310 | 1.7 | 2.6 | 0.00 | 0.00 | 0.00 | 79 | 1012.4 |
| 20260831043908 | 82 | 268 | 0.9 | 2.6 | 0.00 | 0.00 | 0.00 | 80 | 1012.4 |
| 20260831043408 | 82 | 251 | 0.9 | 2.6 | 0.00 | 0.00 | 0.00 | 80 | 1012.4 |
| 20260831042909 | 82 | 321 | 0.9 | 2.6 | 0.00 | 0.00 | 0.00 | 80 | 1012.5 |
| 20260831042408 | 82 | 274 | 1.7 | 2.6 | 0.00 | 0.00 | 0.00 | 80 | 1012.5 |
| 20260831041907 | 82 | 226 | 0.9 | 1.7 | 0.00 | 0.00 | 0.00 | 80 | 1012.4 |
| 20260831041409 | 82 | 304 | 0.9 | 1.7 | 0.00 | 0.00 | 0.00 | 80 | 1012.5 |
| 20260831040908 | 82 | 272 | 0.9 | 2.6 | 0.00 | 0.00 | 0.00 | 80 | 1012.4 |
| 20260831040408 | 82 | 272 | 1.7 | 2.6 | 0.00 | 0.00 | 0.00 | 80 | 1012.4 |
| 20260831035407 | 82 | 256 | 1.7 | 2.6 | 0.00 | 0.00 | 0.00 | 80 | 1012.3 |
| 20260831034908 | 82 | 296 | 0.9 | 2.6 | 0.00 | 0.00 | 0.00 | 80 | 1012.3 |
| 20260831034408 | 82 | 243 | 1.7 | 2.6 | 0.00 | 0.00 | 0.00 | 79 | 1012.2 |
| 20260831033907 | 82 | 264 | 0.9 | 2.6 | 0.00 | 0.00 | 0.00 | 79 | 1012.3 |
| 20260831033408 | 82 | 298 | 1.7 | 2.6 | 0.00 | 0.00 | 0.00 | 79 | 1012.2 |
| 20260831032908 | 82 | 244 | 1.7 | 2.6 | 0.00 | 0.00 | 0.00 | 80 | 1012.3 |
| 20260831031908 | 82 | 293 | 0.9 | 2.6 | 0.00 | 0.00 | 0.00 | 79 | 1012.3 |
| 20260831031408 | 82 | 265 | 1.7 | 2.6 | 0.00 | 0.00 | 0.00 | 79 | 1012.2 |
| 20260831030908 | 82 | 261 | 1.7 | 2.6 | 0.00 | 0.00 | 0.00 | 79 | 1012.2 |
| 20260831030408 | 82 | 263 | 1.7 | 2.6 | 0.00 | 0.00 | 0.00 | 79 | 1012.2 |
| 20260831025909 | 82 | 278 | 0.9 | 2.6 | 0.00 | 0.00 | 0.00 | 79 | 1012.2 |
| 20260831025408 | 82 | 274 | 0.9 | 2.6 | 0.00 | 0.00 | 0.00 | 78 | 1012.2 |
| 20260831024907 | 82 | 293 | 1.7 | 2.6 | 0.00 | 0.00 | 0.00 | 78 | 1012.2 |
| 20260831024409 | 82 | 295 | 1.7 | 2.6 | 0.00 | 0.00 | 0.00 | 78 | 1012.1 |
| 20260831023908 | 82 | 309 | 1.7 | 2.6 | 0.00 | 0.00 | 0.00 | 78 | 1012.1 |
| 20260831023408 | 82 | 268 | 1.7 | 2.6 | 0.00 | 0.00 | 0.00 | 78 | 1012.1 |
| 20260831022907 | 82 | 275 | 0.9 | 2.6 | 0.00 | 0.00 | 0.00 | 77 | 1012.1 |
| 20260831022408 | 82 | 271 | 0.9 | 2.6 | 0.00 | 0.00 | 0.00 | 77 | 1012.0 |
| 20260831021907 | 82 | 283 | 1.7 | 2.6 | 0.00 | 0.00 | 0.00 | 77 | 1012.1 |
| 20260831020908 | 82 | 244 | 0.9 | 2.6 | 0.00 | 0.00 | 0.00 | 76 | 1012.1 |
| 20260831020408 | 82 | 264 | 1.7 | 2.6 | 0.00 | 0.00 | 0.00 | 75 | 1012.1 |
| 20260831015408 | 83 | 268 | 1.7 | 2.6 | 0.00 | 0.00 | 0.00 | 74 | 1012.0 |
| 20260831014907 | 83 | 294 | 0.9 | 2.6 | 0.00 | 0.00 | 0.00 | 74 | 1012.0 |
| 20260831014409 | 83 | 278 | 1.7 | 2.6 | 0.00 | 0.00 | 0.00 | 74 | 1012.0 |
| 20260831013408 | 83 | 288 | 1.7 | 2.6 | 0.00 | 0.00 | 0.00 | 74 | 1012.0 |
| 20260831012908 | 83 | 263 | 1.7 | 2.6 | 0.00 | 0.00 | 0.00 | 73 | 1011.9 |
| 20260831011908 | 83 | 265 | 1.7 | 2.6 | 0.00 | 0.00 | 0.00 | 72 | 1011.9 |
| 20260831011409 | 83 | 289 | 2.6 | 2.6 | 0.00 | 0.00 | 0.00 | 72 | 1011.9 |
| 20260831010908 | 83 | 275 | 2.6 | 2.6 | 0.00 | 0.00 | 0.00 | 71 | 1011.9 |
| 20260831010409 | 84 | 267 | 1.7 | 2.6 | 0.00 | 0.00 | 0.00 | 71 | 1011.9 |
| 20260831005908 | 84 | 270 | 1.7 | 2.6 | 0.00 | 0.00 | 0.00 | 71 | 1012.0 |
| 20260831004907 | 84 | 282 | 1.7 | 2.6 | 0.00 | 0.00 | 0.00 | 71 | 1011.9 |
| 20260831004408 | 84 | 275 | 1.7 | 2.6 | 0.00 | 0.00 | 0.00 | 71 | 1011.9 |
| 20260831003908 | 84 | 302 | 2.6 | 2.6 | 0.00 | 0.00 | 0.00 | 71 | 1011.9 |
| 20260831002907 | 84 | 259 | 1.7 | 2.6 | 0.00 | 0.00 | 0.00 | 72 | 1011.8 |
| 20260831001907 | 84 | 298 | 1.7 | 2.6 | 0.00 | 0.00 | 0.00 | 71 | 1011.9 |
| 20260831001408 | 84 | 318 | 1.7 | 2.6 | 0.00 | 0.00 | 0.00 | 72 | 1011.9 |
| 20260831000908 | 84 | 294 | 1.7 | 2.6 | 0.00 | 0.00 | 0.00 | 73 | 1011.8 |
| 20260830235907 | 84 | 244 | 1.7 | 2.6 | 0.00 | 0.00 | 0.00 | 78 | 1011.8 |
| 20260830235409 | 84 | 254 | 1.7 | 2.6 | 0.00 | 0.00 | 0.00 | 79 | 1011.7 |
| 20260830234908 | 84 | 257 | 1.7 | 2.6 | 0.00 | 0.00 | 0.00 | 79 | 1011.7 |
| 20260830234407 | 84 | 263 | 1.7 | 2.6 | 0.00 | 0.00 | 0.00 | 80 | 1011.7 |
| 20260830233908 | 84 | 258 | 0.9 | 2.6 | 0.00 | 0.00 | 0.00 | 81 | 1011.7 |
| 20260830233408 | 84 | 260 | 1.7 | 2.6 | 0.00 | 0.00 | 0.00 | 80 | 1011.6 |
| 20260830232908 | 85 | 266 | 1.7 | 2.6 | 0.00 | 0.00 | 0.00 | 80 | 1011.5 |
| 20260830232407 | 85 | 267 | 1.7 | 2.6 | 0.00 | 0.00 | 0.00 | 79 | 1011.5 |
| 20260830231908 | 85 | 246 | 0.9 | 1.7 | 0.00 | 0.00 | 0.00 | 79 | 1011.5 |
| 20260830231409 | 85 | 262 | 1.7 | 2.6 | 0.00 | 0.00 | 0.00 | 79 | 1011.5 |
| 20260830230908 | 85 | 261 | 1.7 | 2.6 | 0.00 | 0.00 | 0.00 | 80 | 1011.4 |
| 20260830230408 | 85 | 259 | 0.9 | 1.7 | 0.00 | 0.00 | 0.00 | 80 | 1011.4 |
| 20260830224908 | 85 | 247 | 1.7 | 2.6 | 0.00 | 0.00 | 0.00 | 80 | 1011.5 |
| 20260830224408 | 85 | 272 | 0.9 | 1.7 | 0.00 | 0.00 | 0.00 | 80 | 1011.5 |
| 20260830223912 | 85 | 294 | 0.9 | 1.7 | 0.00 | 0.00 | 0.00 | 80 | 1011.5 |
| 20260830223407 | 85 | 294 | 0.0 | 0.9 | 0.00 | 0.00 | 0.00 | 80 | 1011.5 |
| 20260830222908 | 85 | 294 | 0.9 | 1.7 | 0.00 | 0.00 | 0.00 | 80 | 1011.5 |
| 20260830222408 | 85 | 294 | 0.0 | 1.7 | 0.00 | 0.00 | 0.00 | 80 | 1011.6 |
| 20260830221908 | 85 | 305 | 0.9 | 1.7 | 0.00 | 0.00 | 0.00 | 80 | 1011.5 |
| 20260830221408 | 85 | 315 | 0.0 | 1.7 | 0.00 | 0.00 | 0.00 | 80 | 1011.5 |
| 20260830220908 | 85 | 70 | 0.0 | 0.9 | 0.00 | 0.00 | 0.00 | 80 | 1011.5 |
| 20260830220409 | 85 | 70 | 0.0 | 0.9 | 0.00 | 0.00 | 0.00 | 80 | 1011.5 |
| 20260830213908 | 85 | 86 | 0.9 | 2.6 | 0.00 | 0.00 | 0.00 | 81 | 1011.5 |
| 20260830213408 | 85 | 91 | 0.9 | 1.7 | 0.00 | 0.00 | 0.00 | 81 | 1011.4 |
| 20260830212908 | 85 | 65 | 0.9 | 1.7 | 0.00 | 0.00 | 0.00 | 81 | 1011.4 |
| 20260830212409 | 85 | 67 | 0.9 | 1.7 | 0.00 | 0.00 | 0.00 | 81 | 1011.3 |
| 20260830211908 | 85 | 47 | 0.9 | 2.6 | 0.00 | 0.00 | 0.00 | 81 | 1011.4 |
| 20260830210909 | 85 | 70 | 1.7 | 2.6 | 0.00 | 0.00 | 0.00 | 81 | 1011.3 |
| 20260830210407 | 85 | 84 | 0.9 | 2.6 | 0.00 | 0.00 | 0.00 | 81 | 1011.3 |
| 20260830205907 | 85 | 57 | 0.9 | 2.6 | 0.00 | 0.00 | 0.00 | 81 | 1011.3 |
| 20260830205407 | 85 | 80 | 1.7 | 2.6 | 0.00 | 0.00 | 0.00 | 81 | 1011.3 |
| 20260830204407 | 85 | 35 | 1.7 | 2.6 | 0.00 | 0.00 | 0.00 | 81 | 1011.3 |
| 20260830203908 | 85 | 91 | 0.9 | 2.6 | 0.00 | 0.00 | 0.00 | 80 | 1011.4 |
| 20260830202909 | 85 | 80 | 1.7 | 1.7 | 0.00 | 0.00 | 0.00 | 81 | 1011.4 |
| 20260830202408 | 85 | 66 | 0.9 | 2.6 | 0.00 | 0.00 | 0.00 | 80 | 1011.4 |
| 20260830201910 | 85 | 74 | 0.9 | 2.6 | 0.00 | 0.00 | 0.00 | 80 | 1011.4 |
| 20260830201408 | 85 | 61 | 1.7 | 2.6 | 0.00 | 0.00 | 0.00 | 80 | 1011.5 |
| 20260830200907 | 85 | 61 | 0.0 | 1.7 | 0.00 | 0.00 | 0.00 | 80 | 1011.4 |
| 20260830200406 | 85 | 92 | 0.9 | 2.6 | 0.00 | 0.00 | 0.00 | 80 | 1011.4 |
| 20260830195907 | 85 | 76 | 0.9 | 2.6 | 0.00 | 0.00 | 0.00 | 81 | 1011.4 |
| 20260830195406 | 85 | 29 | 0.9 | 2.6 | 0.00 | 0.00 | 0.00 | 81 | 1011.4 |
| 20260830194908 | 85 | 39 | 0.9 | 2.6 | 0.00 | 0.00 | 0.00 | 81 | 1011.3 |
| 20260830194406 | 85 | 63 | 0.0 | 2.6 | 0.00 | 0.00 | 0.00 | 81 | 1011.4 |
| 20260830193908 | 85 | 46 | 0.0 | 1.7 | 0.00 | 0.00 | 0.00 | 82 | 1011.3 |
| 20260830193408 | 85 | 89 | 0.9 | 2.6 | 0.00 | 0.00 | 0.00 | 82 | 1011.4 |
| 20260830192408 | 85 | 110 | 0.9 | 2.6 | 0.00 | 0.00 | 0.00 | 82 | 1011.3 |
| 20260830191908 | 85 | 120 | 0.9 | 2.6 | 0.00 | 0.00 | 0.00 | 82 | 1011.4 |
| 20260830191407 | 85 | 126 | 1.7 | 2.6 | 0.00 | 0.00 | 0.00 | 82 | 1011.3 |
| 20260830190908 | 85 | 115 | 1.7 | 2.6 | 0.00 | 0.00 | 0.00 | 81 | 1011.4 |
| 20260830190407 | 85 | 124 | 1.7 | 2.6 | 0.00 | 0.00 | 0.00 | 81 | 1011.3 |
| 20260830185907 | 85 | 95 | 1.7 | 2.6 | 0.00 | 0.00 | 0.00 | 80 | 1011.3 |
| 20260830184414 | 86 | 135 | 1.7 | 2.6 | 0.00 | 0.00 | 0.00 | 79 | 1011.1 |
| 20260830183908 | 86 | 141 | 0.9 | 2.6 | 0.00 | 0.00 | 0.00 | 78 | 1011.2 |
| 20260830183409 | 86 | 124 | 1.7 | 2.6 | 0.00 | 0.00 | 0.00 | 78 | 1011.1 |
| 20260830182908 | 86 | 83 | 1.7 | 4.3 | 0.00 | 0.00 | 0.00 | 78 | 1011.0 |
| 20260830182408 | 86 | 127 | 1.7 | 4.3 | 0.00 | 0.00 | 0.00 | 77 | 1010.8 |
| 20260830181907 | 86 | 120 | 1.7 | 2.6 | 0.00 | 0.00 | 0.00 | 77 | 1010.9 |
| 20260830180908 | 86 | 142 | 1.7 | 2.6 | 0.00 | 0.00 | 0.00 | 76 | 1010.7 |
| 20260830180408 | 86 | 115 | 1.7 | 2.6 | 0.00 | 0.00 | 0.00 | 76 | 1010.7 |
| 20260830175907 | 86 | 119 | 1.7 | 2.6 | 0.00 | 0.00 | 0.00 | 75 | 1010.7 |
| 20260830175408 | 86 | 127 | 1.7 | 2.6 | 0.00 | 0.00 | 0.00 | 75 | 1010.6 |
| 20260830174908 | 86 | 112 | 1.7 | 2.6 | 0.00 | 0.00 | 0.00 | 75 | 1010.6 |
| 20260830174412 | 86 | 146 | 1.7 | 2.6 | 0.00 | 0.00 | 0.00 | 75 | 1010.5 |
| 20260830173907 | 86 | 120 | 1.7 | 4.3 | 0.00 | 0.00 | 0.00 | 74 | 1010.5 |
| 20260830173407 | 86 | 154 | 1.7 | 4.3 | 0.00 | 0.00 | 0.00 | 74 | 1010.6 |
| 20260830172907 | 87 | 135 | 1.7 | 4.3 | 0.00 | 0.00 | 0.00 | 74 | 1010.5 |
| 20260830172407 | 87 | 153 | 1.7 | 5.2 | 0.00 | 0.00 | 0.00 | 74 | 1010.5 |
| 20260830171908 | 87 | 116 | 1.7 | 4.3 | 0.00 | 0.00 | 0.00 | 73 | 1010.5 |
| 20260830171407 | 87 | 145 | 1.7 | 2.6 | 0.00 | 0.00 | 0.00 | 73 | 1010.5 |
| 20260830170907 | 87 | 133 | 1.7 | 5.2 | 0.00 | 0.00 | 0.00 | 73 | 1010.5 |
| 20260830170408 | 87 | 134 | 1.7 | 2.6 | 0.00 | 0.00 | 0.00 | 73 | 1010.5 |
| 20260830165908 | 87 | 115 | 1.7 | 2.6 | 0.00 | 0.00 | 0.00 | 72 | 1010.5 |
| 20260830165408 | 87 | 104 | 2.6 | 5.2 | 0.00 | 0.00 | 0.00 | 71 | 1010.5 |
| 20260830164908 | 88 | 92 | 0.9 | 5.2 | 0.00 | 0.00 | 0.00 | 71 | 1010.5 |
| 20260830164409 | 88 | 122 | 1.7 | 2.6 | 0.00 | 0.00 | 0.00 | 70 | 1010.6 |
| 20260830163907 | 88 | 158 | 1.7 | 2.6 | 0.00 | 0.00 | 0.00 | 69 | 1010.6 |
| 20260830163408 | 88 | 124 | 1.7 | 4.3 | 0.00 | 0.00 | 0.00 | 69 | 1010.6 |
| 20260830162907 | 89 | 143 | 2.6 | 5.2 | 0.00 | 0.00 | 0.00 | 67 | 1010.7 |
| 20260830162407 | 89 | 139 | 2.6 | 5.2 | 0.00 | 0.00 | 0.00 | 65 | 1010.7 |
| 20260830161907 | 89 | 96 | 2.6 | 6.1 | 0.00 | 0.00 | 0.00 | 64 | 1010.7 |
| 20260830161408 | 89 | 180 | 2.6 | 4.3 | 0.00 | 0.00 | 0.00 | 64 | 1010.7 |
| 20260830160907 | 89 | 109 | 2.6 | 6.1 | 0.00 | 0.00 | 0.00 | 62 | 1010.7 |
| 20260830160408 | 90 | 133 | 2.6 | 6.1 | 0.00 | 0.00 | 0.00 | 63 | 1010.8 |
| 20260830155906 | 90 | 104 | 2.6 | 4.3 | 0.00 | 0.00 | 0.00 | 64 | 1010.7 |
| 20260830154908 | 91 | 122 | 1.7 | 2.6 | 0.00 | 0.00 | 0.00 | 63 | 1010.8 |
| 20260830154413 | 90 | 115 | 2.6 | 5.2 | 0.00 | 0.00 | 0.00 | 61 | 1010.8 |
| 20260830153907 | 91 | 125 | 2.6 | 6.1 | 0.00 | 0.00 | 0.00 | 58 | 1010.9 |
| 20260830153408 | 91 | 65 | 1.7 | 2.6 | 0.00 | 0.00 | 0.00 | 60 | 1010.9 |
| 20260830152909 | 91 | 135 | 1.7 | 5.2 | 0.00 | 0.00 | 0.00 | 59 | 1011.0 |
| 20260830151908 | 92 | 103 | 1.7 | 2.6 | 0.00 | 0.00 | 0.00 | 57 | 1011.1 |
| 20260830151407 | 92 | 134 | 2.6 | 4.3 | 0.00 | 0.00 | 0.00 | 56 | 1011.0 |
| 20260830150908 | 92 | 132 | 2.6 | 4.3 | 0.00 | 0.00 | 0.00 | 56 | 1011.0 |
| 20260830150407 | 92 | 143 | 1.7 | 4.3 | 0.00 | 0.00 | 0.00 | 54 | 1011.0 |
| 20260830145908 | 92 | 154 | 2.6 | 5.2 | 0.00 | 0.00 | 0.00 | 52 | 1011.0 |
| 20260830145408 | 92 | 149 | 2.6 | 5.2 | 0.00 | 0.00 | 0.00 | 50 | 1011.0 |
| 20260830144907 | 92 | 138 | 2.6 | 4.3 | 0.00 | 0.00 | 0.00 | 50 | 1011.0 |
| 20260830144407 | 92 | 120 | 1.7 | 4.3 | 0.00 | 0.00 | 0.00 | 49 | 1011.1 |
| 20260830143908 | 92 | 134 | 2.6 | 5.2 | 0.00 | 0.00 | 0.00 | 49 | 1011.1 |
| 20260830143408 | 92 | 156 | 1.7 | 4.3 | 0.00 | 0.00 | 0.00 | 50 | 1011.2 |
| 20260830142907 | 92 | 137 | 2.6 | 4.3 | 0.00 | 0.00 | 0.00 | 48 | 1011.2 |
| 20260830142408 | 93 | 134 | 1.7 | 4.3 | 0.00 | 0.00 | 0.00 | 51 | 1011.3 |
| 20260830141908 | 93 | 134 | 1.7 | 2.6 | 0.00 | 0.00 | 0.00 | 50 | 1011.3 |
| 20260830141407 | 93 | 168 | 2.6 | 4.3 | 0.00 | 0.00 | 0.00 | 50 | 1011.3 |
| 20260830140907 | 93 | 138 | 1.7 | 4.3 | 0.00 | 0.00 | 0.00 | 50 | 1011.3 |
| 20260830140407 | 93 | 152 | 2.6 | 5.2 | 0.00 | 0.00 | 0.00 | 50 | 1011.4 |
| 20260830135407 | 94 | 131 | 1.7 | 2.6 | 0.00 | 0.00 | 0.00 | 46 | 1011.4 |